{"data":{"norad_id":59520,"epoch":"2026-09-21T18:51:27.037440Z","epoch_age_seconds":54211,"freshness":"FRESH","line1":"1 59520U 24073K   26264.78572960 -.00000272  00000+0 -35624-6 0  9999","line2":"2 59520  43.0060 290.7737 0001193 277.5363  82.5353 15.27577947136165","mean_motion":15.27577947,"eccentricity":0.0001193,"inclination_deg":43.006,"raan_deg":290.7737,"arg_perigee_deg":277.5363,"mean_anomaly_deg":82.5353,"bstar":-3.5624e-7,"rev_number":13616,"period_min":94.266875404166,"perigee_km":482.23670323245,"apogee_km":483.87378370175,"semimajor_km":6861.1922434671,"source":"CELESTRAK","updated_at":"2026-09-22T09:00:48.964270Z"}}